| time (UTC) | temp C | wind direction | speed KPH | gust KPH | rain 1hr cm | rain 24hr cm | rain mn cm | humidity % | barometer mb |
| 20260503002129 | 10 | 124 | 0.0 | 0.0 | 0.00 | 0.23 | 0.23 | 84 | 1036.4 |
| 20260503001626 | 10 | 136 | 0.0 | 0.0 | 0.00 | 0.23 | 0.23 | 84 | 1036.8 |
| 20260503001125 | 10 | 130 | 0.0 | 0.0 | 0.00 | 0.23 | 0.23 | 84 | 1036.4 |
| 20260503000623 | 10 | 139 | 0.0 | 0.0 | 0.00 | 0.23 | 0.23 | 83 | 1036.4 |
| 20260503000122 | 10 | 141 | 0.0 | 0.0 | 0.00 | 0.23 | 0.23 | 83 | 1036.4 |
| 20260502235619 | 10 | 152 | 0.0 | 0.0 | 0.00 | 0.23 | 0.23 | 83 | 1036.4 |
| 20260502235121 | 10 | 145 | 0.0 | 0.0 | 0.00 | 0.23 | 0.23 | 83 | 1036.4 |
| 20260502234117 | 10 | 139 | 0.0 | 0.0 | 0.00 | 0.23 | 0.23 | 82 | 1036.4 |
| 20260502232612 | 10 | 154 | 0.0 | 0.0 | 0.00 | 0.23 | 0.23 | 81 | 1036.4 |
| 20260502232113 | 10 | 130 | 0.0 | 0.0 | 0.00 | 0.23 | 0.23 | 81 | 1036.4 |
| 20260502231609 | 10 | 130 | 0.0 | 0.0 | 0.00 | 0.23 | 0.23 | 80 | 1036.4 |
| 20260502231109 | 10 | 142 | 0.0 | 0.0 | 0.00 | 0.23 | 0.23 | 79 | 1036.4 |
| 20260502230605 | 10 | 142 | 0.0 | 0.0 | 0.00 | 0.23 | 0.23 | 79 | 1036.8 |
| 20260502225603 | 10 | 143 | 0.0 | 0.0 | 0.00 | 0.23 | 0.23 | 79 | 1036.8 |
| 20260502225102 | 10 | 149 | 0.0 | 0.0 | 0.00 | 0.23 | 0.23 | 78 | 1036.8 |
| 20260502224600 | 10 | 144 | 0.0 | 0.0 | 0.00 | 0.23 | 0.23 | 78 | 1036.8 |
| 20260502224059 | 11 | 146 | 0.0 | 0.0 | 0.00 | 0.23 | 0.23 | 78 | 1036.8 |
| 20260502223559 | 11 | 143 | 0.0 | 0.0 | 0.00 | 0.23 | 0.23 | 78 | 1036.4 |
| 20260502223057 | 11 | 141 | 0.0 | 0.0 | 0.00 | 0.23 | 0.23 | 78 | 1036.4 |
| 20260502222054 | 11 | 145 | 0.0 | 0.0 | 0.00 | 0.23 | 0.23 | 77 | 1036.4 |
| 20260502221551 | 11 | 143 | 0.0 | 0.0 | 0.00 | 0.23 | 0.23 | 77 | 1036.4 |
| 20260502221051 | 11 | 143 | 0.0 | 0.0 | 0.00 | 0.23 | 0.23 | 77 | 1036.4 |
| 20260502220548 | 11 | 143 | 0.0 | 0.0 | 0.00 | 0.23 | 0.23 | 77 | 1036.4 |
| 20260502220100 | 11 | 141 | 0.0 | 0.0 | 0.00 | 0.23 | 0.23 | 77 | 1036.8 |
| 20260502215546 | 11 | 146 | 0.0 | 0.0 | 0.00 | 0.23 | 0.23 | 77 | 1036.8 |
| 20260502214544 | 11 | 148 | 0.0 | 0.0 | 0.00 | 0.23 | 0.23 | 76 | 1036.8 |
| 20260502214042 | 11 | 154 | 0.0 | 1.6 | 0.00 | 0.23 | 0.23 | 76 | 1036.4 |
| 20260502213540 | 11 | 137 | 0.0 | 3.2 | 0.00 | 0.23 | 0.23 | 76 | 1036.4 |
| 20260502213039 | 11 | 160 | 0.0 | 6.4 | 0.00 | 0.23 | 0.23 | 75 | 1036.4 |
| 20260502212537 | 11 | 143 | 0.0 | 9.7 | 0.00 | 0.23 | 0.23 | 75 | 1036.4 |
| 20260502212036 | 11 | 204 | 6.4 | 9.7 | 0.00 | 0.23 | 0.23 | 75 | 1036.4 |
| 20260502211535 | 11 | 191 | 3.2 | 4.8 | 0.00 | 0.23 | 0.23 | 75 | 1036.4 |
| 20260502211033 | 11 | 147 | 0.0 | 3.2 | 0.00 | 0.23 | 0.23 | 76 | 1036.4 |
| 20260502210531 | 11 | 141 | 0.0 | 3.2 | 0.00 | 0.23 | 0.23 | 77 | 1036.4 |
| 20260502205027 | 11 | 132 | 3.2 | 6.4 | 0.00 | 0.23 | 0.23 | 76 | 1036.4 |
| 20260502204525 | 11 | 153 | 1.6 | 11.3 | 0.00 | 0.23 | 0.23 | 76 | 1036.4 |
| 20260502204025 | 11 | 141 | 3.2 | 11.3 | 0.00 | 0.23 | 0.23 | 76 | 1036.4 |
| 20260502201518 | 11 | 139 | 3.2 | 4.8 | 0.00 | 0.23 | 0.23 | 76 | 1036.8 |
| 20260502200014 | 11 | 135 | 0.0 | 6.4 | 0.00 | 0.23 | 0.23 | 76 | 1036.8 |
| 20260502195512 | 11 | 139 | 1.6 | 6.4 | 0.00 | 0.23 | 0.23 | 77 | 1037.1 |
| 20260502194509 | 11 | 140 | 1.6 | 11.3 | 0.00 | 0.23 | 0.23 | 77 | 1037.1 |
| 20260502194009 | 11 | 198 | 3.2 | 11.3 | 0.00 | 0.23 | 0.23 | 77 | 1037.1 |
| 20260502193507 | 11 | 152 | 3.2 | 6.4 | 0.00 | 0.23 | 0.23 | 77 | 1037.1 |
| 20260502193006 | 11 | 161 | 0.0 | 6.4 | 0.00 | 0.23 | 0.23 | 77 | 1037.1 |
| 20260502192505 | 10 | 145 | 1.6 | 6.4 | 0.00 | 0.23 | 0.23 | 78 | 1037.1 |
| 20260502192004 | 11 | 175 | 1.6 | 6.4 | 0.00 | 0.23 | 0.23 | 79 | 1037.1 |
| 20260502191501 | 11 | 144 | 1.6 | 4.8 | 0.00 | 0.23 | 0.23 | 79 | 1037.5 |
| 20260502190959 | 11 | 165 | 1.6 | 4.8 | 0.00 | 0.23 | 0.23 | 79 | 1037.5 |
| 20260502190457 | 10 | 129 | 0.0 | 4.8 | 0.03 | 0.23 | 0.23 | 79 | 1037.5 |
| 20260502185956 | 10 | 186 | 1.6 | 3.2 | 0.03 | 0.23 | 0.23 | 79 | 1037.5 |
| 20260502185454 | 10 | 166 | 1.6 | 4.8 | 0.03 | 0.23 | 0.23 | 79 | 1037.5 |
| 20260502184953 | 10 | 137 | 0.0 | 3.2 | 0.03 | 0.23 | 0.23 | 80 | 1037.5 |
| 20260502184452 | 10 | 151 | 1.6 | 4.8 | 0.03 | 0.23 | 0.23 | 81 | 1037.5 |
| 20260502183448 | 10 | 141 | 0.0 | 1.6 | 0.03 | 0.23 | 0.23 | 82 | 1037.8 |
| 20260502182947 | 10 | 141 | 0.0 | 3.2 | 0.05 | 0.23 | 0.23 | 82 | 1038.1 |
| 20260502182446 | 10 | 248 | 1.6 | 4.8 | 0.05 | 0.23 | 0.23 | 81 | 1037.8 |
| 20260502181945 | 10 | 155 | 0.0 | 4.8 | 0.05 | 0.23 | 0.23 | 82 | 1037.8 |
| 20260502181442 | 10 | 135 | 0.0 | 3.2 | 0.05 | 0.23 | 0.23 | 81 | 1037.8 |
| 20260502180941 | 10 | 178 | 0.0 | 0.0 | 0.05 | 0.23 | 0.23 | 81 | 1037.5 |
| 20260502180439 | 10 | 142 | 0.0 | 0.0 | 0.05 | 0.20 | 0.20 | 81 | 1038.1 |
| 20260502170418 | 10 | 139 | 0.0 | 0.0 | 0.15 | 0.15 | 0.15 | 85 | 1037.8 |
| 20260502163910 | 11 | 150 | 0.0 | 4.8 | 0.05 | 0.05 | 0.05 | 79 | 1037.8 |
| 20260502163409 | 11 | 142 | 1.6 | 4.8 | 0.03 | 0.03 | 0.03 | 77 | 1038.1 |
| 20260502162909 | 11 | 137 | 1.6 | 9.7 | 0.00 | 0.00 | 0.00 | 75 | 1037.8 |
| 20260502162406 | 11 | 202 | 6.4 | 9.7 | 0.00 | 0.00 | 0.00 | 74 | 1038.1 |
| 20260502161905 | 11 | 119 | 0.0 | 6.4 | 0.00 | 0.00 | 0.00 | 73 | 1037.8 |
| 20260502161402 | 12 | 133 | 0.0 | 6.4 | 0.00 | 0.00 | 0.00 | 71 | 1038.1 |
| 20260502160904 | 12 | 153 | 3.2 | 4.8 | 0.00 | 0.00 | 0.00 | 70 | 1037.8 |
| 20260502160401 | 12 | 159 | 0.0 | 6.4 | 0.00 | 0.00 | 0.00 | 71 | 1038.5 |
| 20260502151846 | 12 | 160 | 1.6 | 6.4 | 0.00 | 0.00 | 0.00 | 68 | 1038.1 |
| 20260502151344 | 12 | 134 | 0.0 | 3.2 | 0.00 | 0.00 | 0.00 | 67 | 1038.1 |
| 20260502150843 | 12 | 137 | 1.6 | 4.8 | 0.00 | 0.00 | 0.00 | 69 | 1038.1 |
| 20260502150341 | 12 | 160 | 1.6 | 4.8 | 0.00 | 0.00 | 0.00 | 69 | 1038.5 |
| 20260502130318 | 10 | 165 | 0.0 | 4.8 | 0.00 | 0.00 | 0.00 | 74 | 1039.2 |
| 20260502123759 | 10 | 143 | 0.0 | 3.2 | 0.00 | 0.00 | 0.00 | 75 | 1039.2 |
| 20260502122808 | 10 | 150 | 0.0 | 6.4 | 0.00 | 0.00 | 0.00 | 76 | 1039.2 |
| 20260502122254 | 10 | 174 | 1.6 | 3.2 | 0.00 | 0.00 | 0.00 | 75 | 1039.2 |
| 20260502121250 | 10 | 117 | 0.0 | 4.8 | 0.00 | 0.00 | 0.00 | 75 | 1039.2 |
| 20260502120749 | 10 | 140 | 0.0 | 4.8 | 0.00 | 0.00 | 0.00 | 76 | 1038.8 |
| 20260502120248 | 9 | 213 | 0.0 | 6.4 | 0.00 | 0.00 | 0.00 | 75 | 1038.8 |
| 20260502115747 | 10 | 179 | 4.8 | 6.4 | 0.00 | 0.00 | 0.00 | 75 | 1038.8 |
| 20260502114744 | 9 | 151 | 3.2 | 4.8 | 0.00 | 0.00 | 0.00 | 75 | 1038.5 |
| 20260502114243 | 9 | 228 | 1.6 | 4.8 | 0.00 | 0.00 | 0.00 | 75 | 1038.8 |
| 20260502113742 | 9 | 143 | 0.0 | 4.8 | 0.00 | 0.00 | 0.00 | 76 | 1038.8 |
| 20260502113239 | 9 | 60 | 1.6 | 4.8 | 0.00 | 0.00 | 0.00 | 76 | 1038.8 |
| 20260502112739 | 9 | 170 | 3.2 | 4.8 | 0.00 | 0.00 | 0.00 | 75 | 1038.5 |
| 20260502112236 | 8 | 152 | 1.6 | 1.6 | 0.00 | 0.00 | 0.00 | 76 | 1038.5 |
| 20260502111734 | 8 | 143 | 0.0 | 0.0 | 0.00 | 0.00 | 0.00 | 76 | 1038.5 |
| 20260502111233 | 8 | 143 | 0.0 | 1.6 | 0.00 | 0.00 | 0.00 | 76 | 1038.1 |
| 20260502110746 | 8 | 130 | 0.0 | 3.2 | 0.00 | 0.00 | 0.00 | 76 | 1038.1 |
| 20260502110232 | 8 | 217 | 0.0 | 3.2 | 0.00 | 0.00 | 0.00 | 76 | 1038.5 |
| 20260502105731 | 8 | 139 | 0.0 | 3.2 | 0.00 | 0.00 | 0.00 | 76 | 1038.5 |
| 20260502105229 | 8 | 169 | 1.6 | 1.6 | 0.00 | 0.00 | 0.00 | 76 | 1038.1 |
| 20260502104224 | 8 | 143 | 0.0 | 0.0 | 0.00 | 0.00 | 0.00 | 76 | 1038.1 |
| 20260502103722 | 8 | 143 | 0.0 | 1.6 | 0.00 | 0.00 | 0.00 | 76 | 1038.1 |
| 20260502103222 | 8 | 139 | 0.0 | 1.6 | 0.00 | 0.00 | 0.00 | 76 | 1038.1 |
| 20260502102722 | 8 | 136 | 1.6 | 1.6 | 0.00 | 0.00 | 0.00 | 76 | 1038.1 |
| 20260502101718 | 8 | 151 | 0.0 | 1.6 | 0.00 | 0.00 | 0.00 | 76 | 1038.1 |
| 20260502101215 | 8 | 142 | 0.0 | 0.0 | 0.00 | 0.00 | 0.00 | 76 | 1038.1 |
| 20260502100716 | 8 | 143 | 0.0 | 0.0 | 0.00 | 0.00 | 0.00 | 76 | 1038.1 |
| 20260502100212 | 8 | 142 | 0.0 | 1.6 | 0.00 | 0.00 | 0.00 | 76 | 1038.1 |
| 20260502090656 | 8 | 134 | 0.0 | 0.0 | 0.00 | 0.00 | 0.00 | 74 | 1037.8 |
| 20260502070116 | 9 | 138 | 0.0 | 1.6 | 0.00 | 0.00 | 0.00 | 63 | 1037.8 |
| 20260502065613 | 9 | 141 | 0.0 | 3.2 | 0.00 | 0.00 | 0.00 | 63 | 1037.8 |
| 20260502065112 | 9 | 218 | 0.0 | 3.2 | 0.00 | 0.00 | 0.00 | 62 | 1037.8 |
| 20260502064610 | 10 | 144 | 0.0 | 6.4 | 0.00 | 0.00 | 0.00 | 62 | 1038.1 |
| 20260502064107 | 10 | 153 | 0.0 | 6.4 | 0.00 | 0.00 | 0.00 | 61 | 1037.8 |
| 20260502063607 | 10 | 143 | 0.0 | 4.8 | 0.00 | 0.00 | 0.00 | 61 | 1037.8 |
| 20260502063106 | 10 | 202 | 3.2 | 6.4 | 0.00 | 0.00 | 0.00 | 60 | 1038.1 |
| 20260502062603 | 10 | 135 | 0.0 | 6.4 | 0.00 | 0.00 | 0.00 | 60 | 1037.8 |
| 20260502062101 | 10 | 172 | 0.0 | 4.8 | 0.00 | 0.00 | 0.00 | 59 | 1037.8 |
| 20260502061600 | 10 | 143 | 0.0 | 4.8 | 0.00 | 0.00 | 0.00 | 58 | 1038.1 |
| 20260502061058 | 10 | 249 | 0.0 | 6.4 | 0.00 | 0.00 | 0.00 | 58 | 1038.1 |
| 20260502060556 | 10 | 186 | 3.2 | 6.4 | 0.00 | 0.00 | 0.00 | 58 | 1038.1 |
| 20260502060107 | 10 | 54 | 3.2 | 9.7 | 0.00 | 0.00 | 0.00 | 57 | 1038.1 |
| 20260502055606 | 10 | 223 | 1.6 | 11.3 | 0.00 | 0.00 | 0.00 | 57 | 1038.1 |
| 20260502055051 | 10 | 155 | 3.2 | 11.3 | 0.00 | 0.00 | 0.00 | 57 | 1038.1 |
| 20260502054550 | 10 | 171 | 1.6 | 11.3 | 0.00 | 0.00 | 0.00 | 57 | 1038.1 |
| 20260502054048 | 11 | 218 | 3.2 | 14.5 | 0.00 | 0.00 | 0.00 | 57 | 1038.1 |
| 20260502053046 | 10 | 196 | 3.2 | 12.9 | 0.00 | 0.00 | 0.00 | 59 | 1038.1 |
| 20260502052546 | 10 | 117 | 1.6 | 12.9 | 0.00 | 0.00 | 0.00 | 59 | 1038.1 |
| 20260502052042 | 10 | 189 | 0.0 | 6.4 | 0.00 | 0.00 | 0.00 | 59 | 1038.1 |
| 20260502051541 | 10 | 182 | 3.2 | 6.4 | 0.00 | 0.00 | 0.00 | 59 | 1038.1 |
| 20260502050539 | 10 | 302 | 6.4 | 12.9 | 0.00 | 0.00 | 0.00 | 61 | 1038.1 |
| 20260502045534 | 10 | 196 | 0.0 | 6.4 | 0.00 | 0.00 | 0.00 | 61 | 1038.1 |
| 20260502045033 | 10 | 300 | 1.6 | 4.8 | 0.00 | 0.00 | 0.00 | 62 | 1038.1 |
| 20260502044030 | 10 | 259 | 1.6 | 9.7 | 0.00 | 0.00 | 0.00 | 61 | 1038.1 |
| 20260502043530 | 10 | 139 | 0.0 | 11.3 | 0.00 | 0.00 | 0.00 | 61 | 1038.1 |
| 20260502042527 | 10 | 230 | 3.2 | 11.3 | 0.00 | 0.00 | 0.00 | 61 | 1038.1 |
| 20260502042024 | 10 | 234 | 3.2 | 11.3 | 0.00 | 0.00 | 0.00 | 60 | 1038.1 |
| 20260502041523 | 10 | 246 | 3.2 | 11.3 | 0.00 | 0.00 | 0.00 | 60 | 1038.1 |
| 20260502041034 | 10 | 136 | 0.0 | 11.3 | 0.00 | 0.00 | 0.00 | 60 | 1038.1 |
| 20260502040522 | 10 | 20 | 1.6 | 4.8 | 0.00 | 0.00 | 0.00 | 61 | 1038.1 |
| 20260502040018 | 10 | 148 | 1.6 | 12.9 | 0.00 | 0.00 | 0.00 | 60 | 1038.5 |
| 20260502035517 | 10 | 143 | 1.6 | 12.9 | 0.00 | 0.00 | 0.00 | 60 | 1038.1 |
| 20260502035015 | 11 | 141 | 1.6 | 11.3 | 0.00 | 0.00 | 0.00 | 60 | 1038.5 |
| 20260502034514 | 11 | 257 | 4.8 | 11.3 | 0.00 | 0.00 | 0.00 | 60 | 1038.5 |
| 20260502034012 | 10 | 147 | 0.0 | 6.4 | 0.00 | 0.00 | 0.00 | 60 | 1038.1 |
| 20260502033512 | 11 | 140 | 1.6 | 9.7 | 0.00 | 0.00 | 0.00 | 60 | 1038.1 |
| 20260502032509 | 11 | 222 | 6.4 | 11.3 | 0.00 | 0.00 | 0.00 | 59 | 1038.1 |
| 20260502032007 | 11 | 117 | 3.2 | 11.3 | 0.00 | 0.00 | 0.00 | 59 | 1038.1 |
| 20260502031507 | 11 | 270 | 6.4 | 12.9 | 0.00 | 0.00 | 0.00 | 59 | 1038.5 |
| 20260502030503 | 11 | 211 | 3.2 | 6.4 | 0.00 | 0.00 | 0.00 | 59 | 1038.5 |
| 20260502030002 | 11 | 152 | 1.6 | 11.3 | 0.00 | 0.00 | 0.00 | 58 | 1038.1 |
| 20260502025500 | 11 | 306 | 6.4 | 12.9 | 0.00 | 0.00 | 0.00 | 57 | 1038.1 |
| 20260502024957 | 11 | 136 | 1.6 | 12.9 | 0.00 | 0.00 | 0.00 | 57 | 1038.5 |
| 20260502023952 | 11 | 143 | 0.0 | 9.7 | 0.00 | 0.00 | 0.00 | 55 | 1038.1 |
| 20260502023451 | 11 | 142 | 0.0 | 9.7 | 0.00 | 0.00 | 0.00 | 55 | 1038.1 |
| 20260502022950 | 11 | 139 | 0.0 | 6.4 | 0.00 | 0.00 | 0.00 | 54 | 1038.1 |
| 20260502022448 | 11 | 152 | 0.0 | 11.3 | 0.00 | 0.00 | 0.00 | 53 | 1038.1 |
| 20260502021945 | 11 | 191 | 6.4 | 11.3 | 0.00 | 0.00 | 0.00 | 53 | 1038.1 |
| 20260502021443 | 11 | 291 | 1.6 | 4.8 | 0.00 | 0.00 | 0.00 | 52 | 1038.1 |
| 20260502020941 | 11 | 342 | 1.6 | 6.4 | 0.00 | 0.00 | 0.00 | 52 | 1038.1 |
| 20260502020441 | 11 | 57 | 1.6 | 6.4 | 0.00 | 0.00 | 0.00 | 51 | 1038.5 |
| 20260502015939 | 11 | 252 | 3.2 | 4.8 | 0.00 | 0.00 | 0.00 | 50 | 1038.5 |
| 20260502015438 | 12 | 79 | 3.2 | 4.8 | 0.00 | 0.00 | 0.00 | 49 | 1038.1 |
| 20260502014935 | 12 | 262 | 1.6 | 9.7 | 0.00 | 0.00 | 0.00 | 48 | 1038.1 |
| 20260502014435 | 12 | 217 | 1.6 | 9.7 | 0.00 | 0.00 | 0.00 | 47 | 1038.1 |
| 20260502013934 | 12 | 262 | 4.8 | 9.7 | 0.00 | 0.00 | 0.00 | 47 | 1038.1 |
| 20260502012931 | 12 | 275 | 3.2 | 9.7 | 0.00 | 0.00 | 0.00 | 46 | 1038.1 |
| 20260502011925 | 12 | 140 | 1.6 | 6.4 | 0.00 | 0.00 | 0.00 | 46 | 1038.1 |
| 20260502010922 | 12 | 138 | 0.0 | 6.4 | 0.00 | 0.00 | 0.00 | 47 | 1037.8 |
| 20260502010422 | 12 | 159 | 0.0 | 6.4 | 0.00 | 0.00 | 0.00 | 46 | 1037.8 |
| 20260502005918 | 12 | 145 | 0.0 | 0.0 | 0.00 | 0.00 | 0.00 | 46 | 1037.8 |
| 20260502005418 | 12 | 165 | 0.0 | 0.0 | 0.00 | 0.00 | 0.00 | 45 | 1037.5 |
| 20260502004416 | 11 | 135 | 0.0 | 0.0 | 0.00 | 0.00 | 0.00 | 50 | 1037.5 |
| 20260502003913 | 11 | 149 | 0.0 | 0.0 | 0.00 | 0.00 | 0.00 | 48 | 1037.5 |
| 20260502003411 | 11 | 151 | 0.0 | 0.0 | 0.00 | 0.00 | 0.00 | 46 | 1037.1 |